Location: Habighorst
(52.7089°N, 10.2278°E)
Time: 06:13:26
(UTC+00:00)

Cosmos 2369 Rocket - Pass Details

Date: 13 January 2026
Orbit: 827 x 852 km, 71.0° (Epoch: 18 February)

Event Time Altitude Azimuth Distance (km) Brightness Sun altitude
Rises 06:33:49 0° 176° (S) 3,392 5.8 -7.5°
Reaches altitude 10° 06:36:29 10° 167° (SSE) 2,465 5.2 -7.2°
Maximum altitude 06:41:25 32° 106° (ESE) 1,431 4.4 -6.5°
Drops below altitude 10° 06:46:23 10° 46° (NE) 2,490 4.9 -5.8°
Sets 06:49:04 0° 36° (NE) 3,432 5.5 -5.5°
